Tampa Macdill AFB, FL

10:32 PM EST on January 16, 2018 (GMT -0500)
MacDill Air Force Base

Weather History for KMCF - October, 2012

Change the Weather History Date:

Saturday, October 6, 2012

  Actual Average Record
Temperature  
Mean Temperature 82 °F -  
Max Temperature 90 °F 84 °F 92 °F (2017)
Min Temperature 73 °F 69 °F 58 °F (2014)
Cooling Degree Days 16    
Growing Degree Days 32 (Base 50)    
Moisture  
Dew Point 75 °F    
Average Humidity 90    
Maximum Humidity 100    
Minimum Humidity 62    
Precipitation  
Precipitation 0.00 in - - ()
Sea Level Pressure  
Sea Level Pressure 29.96 in    
Wind  
Wind Speed 5 mph (East)    
Max Wind Speed 18 mph    
Max Gust Speed 25 mph    
Visibility 9 miles    
Events Rain , Thunderstorm    
Averages and records for this station are not official NWS values.
T = Trace of Precipitation, MM = Missing Value Source: NWS Daily Summary

Daily Weather History Graph

Daily Weather History Graph

Search for Another Location

Airport or City:

Trip Planner

Search our weather history database for the weather conditions in past years. The results will help you decide how hot, cold, wet, or windy it might be!

Date:

Astronomy

Oct. 06, 2012 Rise Set
Actual Time 7:25 AM EDT 7:09 PM EDT
Civil Twilight 7:02 AM EDT 7:33 PM EDT
Nautical Twilight 6:35 AM EDT 8:00 PM EDT
Astronomical Twilight 6:07 AM EDT 8:27 PM EDT
Moon 11:46 PM EDT (10/6) 12:56 PM EDT (10/6)
Length of Visible Light 12h 31m
Length of Day
11h 44m
Waning Gibbous, 65% of the Moon is Illuminated
Oct 6
Waning Gibbous
Oct 8
Last Quarter
Oct 15
New
Oct 21
First Quarter
Oct 29
Full

Hourly Weather History & Observations

Time (EDT) Temp. Heat Index Dew Point Humidity Pressure Visibility Wind Dir Wind Speed Gust Speed Precip Events Conditions
12:55 AM 73.0 °F - 73.0 °F 100% 30.01 in 10.0 mi NNE 3.5 mph - N/A   Partly Cloudy
1:55 AM 73.0 °F - 73.0 °F 100% 29.99 in 10.0 mi SE 4.6 mph - N/A   Scattered Clouds
2:55 AM 73.9 °F - 73.9 °F 100% 29.98 in 10.0 mi East 4.6 mph - N/A   Clear
3:50 AM 73.4 °F - 73.4 °F 100% 29.96 in 7.0 mi NNE 3.5 mph - N/A   Clear
3:55 AM 73.4 °F - 73.4 °F 100% 29.96 in 6.0 mi Calm Calm - N/A   Clear
3:57 AM 73.4 °F - 73.4 °F 100% 29.96 in 6.0 mi Calm Calm - N/A   Clear
4:55 AM 73.2 °F - 73.2 °F 100% 29.95 in 10.0 mi Calm Calm - N/A   Mostly Cloudy
5:55 AM 73.4 °F - 73.4 °F 100% 29.96 in 10.0 mi NE 4.6 mph - N/A   Mostly Cloudy
6:55 AM 73.2 °F - 73.2 °F 100% 29.96 in 10.0 mi Calm Calm - N/A   Scattered Clouds
7:55 AM 75.0 °F - 75.0 °F 100% 29.97 in 10.0 mi East 6.9 mph - N/A   Scattered Clouds
7:59 AM 75.2 °F - 75.2 °F 100% 29.97 in 10.0 mi East 5.8 mph - N/A   Mostly Cloudy
8:19 AM 75.2 °F - 75.2 °F 100% 29.98 in 9.0 mi East 5.8 mph - N/A   Mostly Cloudy
8:51 AM 77.0 °F - 77.0 °F 100% 29.98 in 4.0 mi East 6.9 mph - N/A   Scattered Clouds
8:55 AM 77.0 °F - 77.0 °F 100% 29.99 in 5.0 mi East 6.9 mph - N/A   Scattered Clouds
8:58 AM 77.0 °F - 77.0 °F 100% 29.99 in 6.0 mi East 6.9 mph - N/A   Mostly Cloudy
9:12 AM 78.8 °F - 78.8 °F 100% 29.98 in 7.0 mi ESE 6.9 mph - N/A   Scattered Clouds
9:55 AM 81.0 °F 88.6 °F 78.1 °F 91% 29.99 in 10.0 mi ESE 3.5 mph - N/A   Partly Cloudy
10:55 AM 85.3 °F 99.1 °F 79.7 °F 83% 29.99 in 10.0 mi South 5.8 mph - N/A   Clear
11:55 AM 86.5 °F 100.4 °F 79.0 °F 78% 29.99 in 10.0 mi SSW 4.6 mph - N/A   Clear
12:55 PM 89.6 °F 105.4 °F 79.0 °F 71% 29.97 in 10.0 mi SW 5.8 mph - N/A   Clear
1:55 PM 90.3 °F 101.6 °F 75.9 °F 62% 29.94 in 10.0 mi West 4.6 mph - N/A Thunderstorm Clear
2:55 PM 87.6 °F 102.6 °F 79.3 °F 76% 29.91 in 10.0 mi WNW 9.2 mph - N/A   Mostly Cloudy
3:55 PM 85.1 °F 96.2 °F 77.4 °F 78% 29.90 in 10.0 mi NW 4.6 mph - N/A   Partly Cloudy
4:55 PM 85.3 °F 95.8 °F 76.8 °F 76% 29.88 in 10.0 mi Variable 4.6 mph - N/A   Clear
5:55 PM 84.4 °F 94.2 °F 77.0 °F 78% 29.89 in 10.0 mi North 4.6 mph - N/A   Clear
6:55 PM 85.6 °F 96.4 °F 77.0 °F 75% 29.89 in 10.0 mi Calm Calm - N/A   Clear
7:55 PM 80.8 °F 85.9 °F 74.1 °F 80% 29.94 in 10.0 mi NNE 4.6 mph - N/A   Clear
8:55 PM 79.0 °F - 73.6 °F 83% 29.95 in 10.0 mi NNE 5.8 mph - N/A   Clear
9:21 PM 78.8 °F - 73.4 °F 83% 29.97 in 10.0 mi ESE 12.7 mph 25.3 mph N/A Thunderstorm Mostly Cloudy
9:22 PM 78.8 °F - 73.4 °F 83% 29.97 in 10.0 mi ESE 15.0 mph 25.3 mph N/A Thunderstorm Mostly Cloudy
9:23 PM 78.8 °F - 73.4 °F 83% 29.97 in 10.0 mi ESE 17.3 mph 25.3 mph N/A Thunderstorm Mostly Cloudy
9:29 PM 78.8 °F - 73.4 °F 83% 29.98 in 10.0 mi ESE 18.4 mph 24.2 mph N/A Thunderstorm Mostly Cloudy
9:30 PM 78.8 °F - 73.4 °F 83% 29.98 in 10.0 mi ESE 17.3 mph 24.2 mph N/A Thunderstorm Light Drizzle
9:34 PM 77.0 °F - 75.2 °F 94% 29.98 in 10.0 mi ESE 15.0 mph 24.2 mph N/A Rain , Thunderstorm Light Rain
9:43 PM 75.2 °F - 73.4 °F 94% 29.99 in 10.0 mi ESE 12.7 mph - N/A Thunderstorm Overcast
9:55 PM 75.0 °F - 72.9 °F 93% 29.98 in 10.0 mi ESE 13.8 mph - 0.00 in Thunderstorm Mostly Cloudy
10:55 PM 73.9 °F - 71.1 °F 91% 29.96 in 10.0 mi SE 3.5 mph - N/A   Clear
11:55 PM 74.7 °F - 73.2 °F 95% 29.96 in 10.0 mi SSE 6.9 mph - N/A   Clear